• Join FlightAware (Why Join?)
  • Login
  • US Flag 
Rudolph Flight #1: Arrived! 
06:14AM EST


 

Airport Tracker/Info


-or-


 

Live Flight TrackerFlight Track Log ✈ UAL6148 ✈ 24-Apr-2013 ✈ KCID - KDEN

Flight Track Log - Related Links

Times and Time Zones

All times are in EDT time to prevent confusion due to time zone crossing. See the UAL6148 flight status page for this flight to view local times or setup timezone preferences in your user account.

Time Position Orientation Groundspeed Altitude Reporting Facility
EDT Latitude Longitude Course Direction KTS MPH feet Rate Location/Type
05:36PM 41.8778 -91.7694 263° West 154 177 3,600  Level Chicago Center
05:37PM 41.8697 -91.8575 263° West 184 212 6,700 2,700 Climbing Chicago Center
05:38PM 41.8636 -91.9442 265° West 212 244 9,200 1,740 Climbing Chicago Center
05:39PM 41.8556 -92.0422 264° West 247 284 10,400 1,320 Climbing Chicago Center
05:40PM 41.8464 -92.1581 264° West 288 331 12,000 1,680 Climbing Chicago Center
05:41PM 41.8375 -92.2806 264° West 317 365 13,900 2,040 Climbing Chicago Center
05:42PM 41.8264 -92.4258 264° West 325 374 16,300 2,040 Climbing Chicago Center
05:43PM 41.8181 -92.5469 265° West 325 374 18,200 1,800 Climbing Chicago Center
05:44PM 41.8083 -92.6611 264° West 312 359 20,100 1,740 Climbing Chicago Center
05:45PM 41.8000 -92.7800 265° West 316 364 21,900 1,680 Climbing Minneapolis Center
05:46PM 41.7894 -92.8997 263° West 312 359 23,600 1,560 Climbing Minneapolis Center
05:47PM 41.7794 -93.0136 263° West 311 358 25,200 1,680 Climbing Minneapolis Center
05:49PM 41.7675 -93.1511 263° West 312 359 27,100 1,680 Climbing Minneapolis Center
05:50PM 41.7581 -93.2644 264° West 310 357 28,700 1,500 Climbing Minneapolis Center
05:51PM 41.7486 -93.3742 263° West 304 350 30,200 1,260 Climbing Minneapolis Center
05:52PM 41.7392 -93.4825 263° West 298 343 31,400 1,020 Climbing Minneapolis Center
05:53PM 41.7300 -93.5936 264° West 300 345 32,400 1,020 Climbing Minneapolis Center
05:54PM 41.7378 -93.7322 274° West 311 358 33,600 1,020 Climbing Minneapolis Center
05:55PM 41.7433 -93.8467 274° West 312 359 34,600 960 Climbing Minneapolis Center
05:56PM 41.7503 -93.9622 275° West 309 356 35,600 660 Climbing Minneapolis Center
05:57PM 41.7564 -94.0761 274° West 308 354 36,000 180 Climbing Minneapolis Center
05:58PM 41.7625 -94.1994 274° West 331 381 36,000  Level Minneapolis Center
05:59PM 41.7689 -94.3294 274° West 349 402 36,000  Level Minneapolis Center
06:00PM 41.7775 -94.4928 274° West 366 421 36,000  Level Minneapolis Center
06:01PM 41.7847 -94.6275 274° West 363 418 36,000  Level Minneapolis Center
06:02PM 41.7900 -94.7608 273° West 360 414 36,000  Level Minneapolis Center
06:03PM 41.7967 -94.8942 274° West 360 414 36,000  Level Minneapolis Center
06:04PM 41.8039 -95.0522 274° West 355 409 36,000  Level Minneapolis Center
06:05PM 41.8092 -95.1839 273° West 355 409 36,000  Level Minneapolis Center
06:06PM 41.8144 -95.3172 273° West 359 413 36,000  Level Minneapolis Center
06:07PM 41.8208 -95.4494 274° West 359 413 36,000  Level Minneapolis Center
06:08PM 41.8261 -95.5822 273° West 359 413 36,000  Level Minneapolis Center
06:09PM 41.8317 -95.7411 273° West 359 413 36,000  Level Minneapolis Center
06:10PM 41.8369 -95.8731 273° West 358 412 36,000  Level Minneapolis Center
06:11PM 41.8419 -96.0056 273° West 359 413 36,000  Level Minneapolis Center
06:12PM 41.8456 -96.1403 272° West 365 420 36,000  Level Minneapolis Center
06:13PM 41.8511 -96.2744 273° West 364 419 36,000 -60 Level Minneapolis Center
06:14PM 41.8556 -96.4075 273° West 359 413 35,900  Descending Minneapolis Center
06:15PM 41.8606 -96.5708 272° West 366 421 36,000  Climbing Minneapolis Center
06:16PM 41.8644 -96.7056 272° West 366 421 36,000  Level Minneapolis Center
06:18PM 41.8681 -96.8403 272° West 364 419 36,000  Level Minneapolis Center
06:19PM 41.8722 -96.9750 272° West 363 418 36,000  Level Minneapolis Center
06:20PM 41.8758 -97.1100 272° West 363 418 36,000  Level Minneapolis Center
06:21PM 41.8800 -97.2731 272° West 365 420 36,000  Level Minneapolis Center
06:22PM 41.8831 -97.4094 272° West 366 421 36,000  Level Minneapolis Center
06:23PM 41.8864 -97.5453 272° West 365 420 36,000  Level Minneapolis Center
06:24PM 41.8903 -97.6831 272° West 367 422 36,000  Level Minneapolis Center
06:25PM 41.8919 -97.8183 271° West 367 422 36,000  Level Minneapolis Center
06:26PM 41.8942 -97.9542 271° West 366 421 36,000  Level Minneapolis Center
06:27PM 41.8983 -98.1175 272° West 365 420 36,000  Level Minneapolis Center
06:28PM 41.9000 -98.2522 271° West 364 419 36,000  Level Minneapolis Center
06:29PM 41.9019 -98.3869 271° West 364 419 36,000  Level Minneapolis Center
06:30PM 41.8914 -98.5219 264° West 367 422 36,000  Level Minneapolis Center
06:31PM 41.8703 -98.6592 258° West 374 430 36,000  Level Minneapolis Center
06:32PM 41.8433 -98.8272 258° West 382 440 36,000  Level Minneapolis Center
06:33PM 41.8211 -98.9700 258° West 390 449 36,000  Level Minneapolis Center
06:34PM 41.7997 -99.1133 259° West 394 453 36,000  Level Minneapolis Center
06:34PM 41.7886 -99.1717 256° West 396 456 36,000  Level Denver Center
06:35PM 41.7656 -99.3172 258° West 401 461 36,000  Level Denver Center
06:36PM 41.7422 -99.4625 258° West 400 460 36,000  Level Denver Center
06:37PM 41.7181 -99.6056 257° West 398 458 36,000  Level Denver Center
06:39PM 41.6878 -99.7594 255° West 387 445 36,000  Level Denver Center
06:40PM 41.6494 -99.8875 248° West 389 448 36,000  Level Denver Center
06:41PM 41.6050 -100.0406 249° West 394 453 36,000  Level Denver Center
06:42PM 41.5664 -100.1731 249° West 398 458 36,000  Level Denver Center
06:43PM 41.5208 -100.3253 248° West 397 457 36,000  Level Denver Center
06:44PM 41.4822 -100.4556 248° West 396 456 36,000  Level Denver Center
06:45PM 41.4372 -100.6083 249° West 399 459 36,000  Level Denver Center
06:46PM 41.3981 -100.7400 248° West 400 460 36,000  Level Denver Center
06:47PM 41.3517 -100.8911 248° West 398 458 36,000  Level Denver Center
06:48PM 41.3136 -101.0203 249° West 397 457 36,000  Level Denver Center
06:49PM 41.2678 -101.1678 248° West 391 450 36,000  Level Denver Center
06:50PM 41.2306 -101.2911 248° West 381 438 36,000  Level Denver Center
06:51PM 41.1864 -101.4347 248° West 378 435 36,000  Level Denver Center
06:52PM 41.1481 -101.5606 248° West 383 441 36,000  Level Denver Center
06:53PM 41.1089 -101.6861 248° West 385 443 36,000  Level Denver Center
06:54PM 41.0631 -101.8336 248° West 388 447 36,000  Level Denver Center
06:55PM 41.0225 -101.9597 247° West 389 448 36,000  Level Denver Center
06:56PM 40.9781 -102.1053 248° West 384 442 36,000  Level Denver Center
06:57PM 40.9367 -102.2306 246° West 386 444 36,000  Level Denver Center
06:58PM 40.8928 -102.3725 248° West 376 433 36,000  Level Denver Center
06:59PM 40.8544 -102.4936 247° West 373 429 36,000 -540 Level Denver Center
07:00PM 40.8083 -102.6353 247° West 377 434 34,900 -1,260 Descending Denver Center
07:01PM 40.7667 -102.7606 246° West 389 448 33,500 -1,500 Descending Denver Center
07:02PM 40.7194 -102.9108 248° West 396 456 31,800 -1,740 Descending Denver Center
07:04PM 40.6642 -103.0767 246° West 397 457 29,600 -1,860 Descending Denver Center
07:05PM 40.6197 -103.2136 247° West 402 463 27,600 -1,860 Descending Denver Center
07:06PM 40.5756 -103.3469 246° West 395 455 25,800 -1,740 Descending Denver Center
07:07PM 40.5347 -103.4725 247° West 376 433 24,100 -1,680 Descending Denver Center
07:08PM 40.4933 -103.5981 247° West 372 428 22,400 -1,980 Descending Denver Center
07:09PM 40.4489 -103.7292 246° West 366 421 20,100 -2,280 Descending Denver Center
07:10PM 40.4058 -103.8578 246° West 354 407 17,800 -1,680 Descending Denver Center
07:11PM 40.3725 -103.9636 248° West 317 365 16,700 -1,380 Descending Denver Center
07:12PM 40.3072 -104.0356 220° Southwest 302 348 15,000 -1,500 Descending Denver Center
07:13PM 40.2303 -104.0714 200° South 292 336 13,600 -1,020 Descending Denver Center
07:14PM 40.1567 -104.0969 195° South 273 314 13,000 -360 Descending Denver Center
07:15PM 40.0839 -104.1236 196° South 255 293 12,900 -600 Descending Denver Center
07:16PM 40.0208 -104.1650 207° Southwest 255 293 11,800 -1,140 Descending Denver Center
07:17PM 39.9792 -104.2425 235° Southwest 246 283 10,600 -1,080 Descending Denver Center
07:18PM 39.9497 -104.3186 243° Southwest 238 274 9,600 -1,020 Descending Denver Center
07:19PM 39.9333 -104.3833 252° West 224 258 8,800 -1,020 Descending Denver TRACON
07:20PM 39.9000 -104.4333 229° Southwest 195 224 7,900 -960 Descending Denver TRACON
07:21PM 39.8833 -104.5000 252° West 191 220 7,000 -900 Descending Denver TRACON
07:22PM 39.8833 -104.5500 270° West 170 196 6,300 -840 Descending Denver TRACON
07:23PM 39.8833 -104.6167 270° West 149 171 5,500 -660 Descending Denver TRACON
07:23PM 39.8775 -104.6364 249° West 151 174 5,300 -360 Descending Denver Center
07:25PM 39.8617 -104.6732 180° South  Level Estimated
07:32PM 39.8617 -104.6732 North  Level Estimated
07:33PM 39.8617 -104.6732 North  Level Estimated